DAMPE

导读

DAMPE“悟空号”是中国于2015年12月17日发射的首颗暗物质粒子探测卫星,运行于500公里太阳同步轨道,是中科院空间科学先导专项首批科学实验卫星之一。 它是目前全球观测能段范围最宽、能量分辨率最优的暗物质探测卫星,核心目标是通过探测高能宇宙线与伽马射线,间接搜寻暗物质粒子,同时探究宇宙射线起源与伽马射线天体物理,推动人类对宇宙暗物质的认知突破。

Basic Information
目录编号:
41173
目录名称:
DAMPE
国际标识:
2015-078A
轨道中心:
EARTH
卫星名称:
DAMPE
卫星全名:
--
卫星状态:
在轨 (已飞行3914 天)
发射日期:
2015-12-17 UTC
国别 :
中国 (CN)
星等 :
--
Orbit Information
数据来源 国际轨道数据 AOE轨道数据
星历时间 2026-09-04T04:48:20+0800
6小时前
查看轨道信息
2026-08-31T02:00:00+0800
4天前
查看轨道信息
半长轴 6851.097km 6851.119km
偏心率 0.0012571 0.0012096
轨道倾角 97.460° 97.459°
近地点辐角 149.003° 162.064°
升交点赤经 252.744° 248.606°
平近点角 211.195° 202.782°
近地点 464.347km 464.694km
远地点 481.573km 481.27km
周期 94.059分钟 94.059分钟
每日圈数 15.309556 15.309485
Detailed Information
使用方式:
暂无
2D Orbit Map
3D Orbit Map
Orbit Altitude Analysis Chart
Orbit Inclination Analysis Chart
Orbit Comprehensive Analysis Chart
View Comprehensive Chart
Conjunction Data List
Event ID Objects TCA Miss Dist (km) Collision Risk Probability Collision Risk Index (CRI) Action
CDM_260901-104804-117305-836223
DAMPE (41173)
2026-09-01T
10:48:00+0000
0.325 km
远距离
4.475422E-4 高风险 0.88
CDM_260905-045604-117306-781721
DAMPE (41173)
2026-09-05T
04:56:53+0000
0.690 km
远距离
9.059861E-5 中风险 0.74
CDM_260827-215804-117306-372122
DAMPE (41173)
2026-08-27T
21:58:30+0000
0.984 km
远距离
2.485539E-5 中风险 0.63
CDM_260902-105604-117306-889824
DAMPE (41173)
2026-09-02T
10:56:50+0000
1.440 km
极远距离
7.783301E-6 低风险 0.53
CDM_260901-094404-117306-882124
DAMPE (41173)
2026-09-01T
09:44:37+0000
1.564 km
极远距离
5.890731E-6 低风险 0.5
CDM_260905-071904-117305-958521
DAMPE (41173)
2026-09-05T
07:19:10+0000
1.615 km
极远距离
5.17811E-6 低风险 0.49
CDM_260903-173804-117305-973923
DAMPE (41173)
2026-09-03T
17:38:58+0000
1.513 km
极远距离
3.938475E-6 低风险 0.47
CDM_260904-215504-117305-557422
DAMPE (41173)
2026-09-04T
21:55:05+0000
2.029 km
极远距离
2.705137E-6 低风险 0.44
CDM_260827-222804-117305-613324
DAMPE (41173)
2026-08-27T
22:28:37+0000
1.779 km
极远距离
2.463603E-6 低风险 0.43
CDM_260904-042804-117306-717222
DAMPE (41173)
2026-09-04T
04:28:57+0000
2.672 km
极远距离
1.475758E-6 低风险 0.38